Weather History for Livingston, MT

Change the Weather History Date:

Monday, January 21, 2013

  Actual Average Record
Temperature  
Mean Temperature 44 °F 27 °F  
Max Temperature 50 °F 37 °F 57 °F (2009)
Min Temperature 37 °F 18 °F -32 °F (1962)
Degree Days  
Heating Degree Days 22 38  
Month to date heating degree days 802  
Since 1 July heating degree days 3967  
Moisture  
Dew Point 11 °F    
Average Humidity 29    
Maximum Humidity 44    
Minimum Humidity 20    
Precipitation  
Precipitation 0.00 in 0.01 in 0.19 in (2003)
Month to date precipitation 0.33  
Year to date precipitation 0.33  
Sea Level Pressure  
Sea Level Pressure 30.12 in    
Wind  
Wind Speed 24 mph (WSW)    
Max Wind Speed 40 mph    
Max Gust Speed 54 mph    
Visibility 10 miles    
Events      
T = Trace of Precipitation, MM = Missing Value Source: NWS Daily Summary

Daily Weather History Graph

Daily Weather History Graph

Search for Another Location

Airport:

Trip Planner

Search our weather history database for the weather conditions in past years. The results will help you decide how hot, cold, wet, or windy it might be!

Date:

Astronomy

Jan. 21, 2013 Rise Set
Actual Time 7:54 AM MST 5:12 PM MST
Civil Twilight 7:21 AM MST 5:45 PM MST
Nautical Twilight 6:45 AM MST 6:21 PM MST
Astronomical Twilight 6:09 AM MST 6:57 PM MST
Moon 12:53 PM MST (1/21) 3:26 AM MST (1/21)
Length of Visible Light 10h 23m
Length of Day
9h 18m
Waxing Gibbous, 75% of the Moon is Illuminated
Jan 21
Waxing Gibbous
Jan 26
Full
Feb 3
Last Quarter
Feb 10
New
Feb 17
First Quarter

Hourly Weather History & Observations

Time (MST) Temp. Windchill Dew Point Humidity Pressure Visibility Wind Dir Wind Speed Gust Speed Precip Events Conditions
12:53 AM 37.0 °F 27.7 °F 17.1 °F 44% 30.22 in 10.0 mi WNW 16.1 mph 21.9 mph N/A   Mostly Cloudy
1:53 AM 37.9 °F 27.6 °F 16.0 °F 41% 30.18 in 10.0 mi West 20.7 mph 31.1 mph N/A   Clear
2:53 AM 39.9 °F 30.2 °F 14.0 °F 35% 30.18 in 10.0 mi West 20.7 mph 32.2 mph N/A   Clear
3:53 AM 39.9 °F 29.7 °F 14.0 °F 35% 30.19 in 10.0 mi WSW 23.0 mph 34.5 mph N/A   Partly Cloudy
4:53 AM 39.0 °F 28.8 °F 12.9 °F 34% 30.21 in 10.0 mi West 21.9 mph 32.2 mph N/A   Scattered Clouds
5:53 AM 37.0 °F 25.9 °F 12.0 °F 36% 30.21 in 10.0 mi West 23.0 mph 32.2 mph N/A   Clear
6:53 AM 37.0 °F 26.4 °F 12.0 °F 36% 30.22 in 10.0 mi West 20.7 mph 28.8 mph N/A   Clear
7:53 AM 39.0 °F 28.8 °F 10.0 °F 30% 30.20 in 10.0 mi WSW 21.9 mph 31.1 mph N/A   Clear
8:53 AM 37.9 °F 28.2 °F 10.0 °F 32% 30.24 in 10.0 mi WSW 18.4 mph 27.6 mph N/A   Clear
9:53 AM 44.1 °F 33.8 °F 10.0 °F 25% 30.20 in 10.0 mi SW 31.1 mph 38.0 mph N/A   Clear
10:53 AM 46.0 °F 36.7 °F 10.0 °F 23% 30.18 in 10.0 mi SW 29.9 mph 40.3 mph N/A   Clear
11:53 AM 46.9 °F - 10.9 °F 23% 30.15 in 10.0 mi SW 27.6 mph 38.0 mph N/A   Clear
12:53 PM 50.0 °F - 10.0 °F 20% 30.09 in 10.0 mi SW 28.8 mph 39.1 mph N/A   Clear
1:53 PM 50.0 °F - 10.0 °F 20% 30.05 in 10.0 mi SW 29.9 mph 38.0 mph N/A   Clear
2:53 PM 48.9 °F - 9.0 °F 20% 30.03 in 10.0 mi WSW 21.9 mph 33.4 mph N/A   Clear
3:53 PM 46.9 °F - 10.0 °F 22% 30.02 in 10.0 mi SW 27.6 mph 36.8 mph N/A   Clear
4:53 PM 45.0 °F 35.8 °F 10.9 °F 25% 30.03 in 10.0 mi SW 26.5 mph 34.5 mph N/A   Clear
5:53 PM 42.1 °F 32.3 °F 12.0 °F 29% 30.05 in 10.0 mi WSW 24.2 mph 40.3 mph N/A   Clear
6:28 PM 42.8 °F 31.4 °F 12.2 °F 29% 30.01 in 10.0 mi SSW 35.7 mph 49.5 mph N/A   Clear
6:53 PM 42.1 °F 30.3 °F 12.0 °F 29% 30.04 in 10.0 mi SW 36.8 mph 49.5 mph N/A   Clear
7:53 PM 41.0 °F 28.3 °F 10.9 °F 29% 30.03 in 10.0 mi SW 40.3 mph 54.1 mph N/A   Clear
8:53 PM 39.9 °F 27.5 °F 10.9 °F 31% 30.04 in 10.0 mi SW 35.7 mph 51.8 mph N/A   Clear
9:53 PM 39.9 °F 27.3 °F 9.0 °F 28% 30.04 in 10.0 mi SSW 36.8 mph 43.7 mph N/A   Clear
10:53 PM 39.0 °F 26.4 °F 8.1 °F 28% 30.04 in 10.0 mi SW 34.5 mph 47.2 mph N/A   Clear
11:53 PM 39.0 °F 25.9 °F 8.1 °F 28% 30.03 in 10.0 mi SW 38.0 mph 52.9 mph N/A   Clear